Weather History for Grayling, MI

Change the Weather History Date:

Tuesday, October 1, 2013

  Actual Average (KHTL) Record (KHTL)
Temperature  
Mean Temperature 57 °F 51 °F  
Max Temperature 73 °F 62 °F 83 °F (1922)
Min Temperature 41 °F 40 °F 16 °F (1918)
Degree Days  
Heating Degree Days 8 14  
Month to date heating degree days 14  
Since 1 July heating degree days 395  
Cooling Degree Days 0 0  
Month to date cooling degree days 0  
Year to date cooling degree days 285  
Growing Degree Days 7 (Base 50)    
Moisture  
Dew Point 55 °F    
Average Humidity 85    
Maximum Humidity 100    
Minimum Humidity 59    
Precipitation  
Precipitation 0.00 in 0.10 in 0.63 in (1933)
Month to date precipitation 0.10  
Year to date precipitation 22.32  
Sea Level Pressure  
Sea Level Pressure 29.87 in    
Wind  
Wind Speed 4 mph (SSW)    
Max Wind Speed 17 mph    
Max Gust Speed 25 mph    
Visibility 9 miles    
Events      
T = Trace of Precipitation, MM = Missing Value Source: NWS Daily Summary

Daily Weather History Graph

Daily Weather History Graph

Search for Another Location

Airport:

Trip Planner

Search our weather history database for the weather conditions in past years. The results will help you decide how hot, cold, wet, or windy it might be!

Date:

Astronomy

Oct. 01, 2013 Rise Set
Actual Time 7:37 AM EDT 7:19 PM EDT
Civil Twilight 7:08 AM EDT 7:48 PM EDT
Nautical Twilight 6:34 AM EDT 8:21 PM EDT
Astronomical Twilight 5:59 AM EDT 8:56 PM EDT
Moon 4:03 AM EDT (10/1) 5:28 PM EDT (10/1)
Length of Visible Light 12h 40m
Length of Day
11h 41m
Waning Crescent, 12% of the Moon is Illuminated
Oct 1
Waning Crescent
Oct 4
New
Oct 11
First Quarter
Oct 18
Full
Oct 26
Last Quarter

Hourly Weather History & Observations

Time (EDT) Temp. Dew Point Humidity Pressure Visibility Wind Dir Wind Speed Gust Speed Precip Events Conditions
12:15 AM 47.7 °F 47.5 °F 99% 29.92 in 10.0 mi Calm Calm - N/A   Clear
12:34 AM 45.9 °F 45.5 °F 99% 29.92 in 10.0 mi Calm Calm - N/A   Clear
12:55 AM 43.5 °F 43.3 °F 99% 29.92 in 10.0 mi Calm Calm - N/A   Clear
1:14 AM 47.1 °F 46.9 °F 99% 29.91 in 10.0 mi Calm Calm - N/A   Clear
1:34 AM 45.9 °F 45.9 °F 100% 29.92 in 7.0 mi Calm Calm - N/A   Clear
1:55 AM 47.5 °F 47.5 °F 100% 29.92 in 10.0 mi Calm Calm - N/A   Clear
2:14 AM 43.5 °F 43.5 °F 100% 29.92 in 10.0 mi Calm Calm - N/A   Clear
2:35 AM 41.9 °F 41.9 °F 100% 29.94 in 10.0 mi Calm Calm - N/A   Clear
2:54 AM 43.5 °F 43.5 °F 100% 29.93 in 10.0 mi Calm Calm - N/A   Clear
3:15 AM 41.0 °F 40.6 °F 99% 29.93 in 10.0 mi Calm Calm - N/A   Clear
3:35 AM 41.0 °F 41.0 °F 100% 29.92 in 1.2 mi Calm Calm - N/A   Mist
3:54 AM 42.1 °F 42.1 °F 100% 29.91 in 1.5 mi Calm Calm - N/A   Mist
4:14 AM 42.6 °F 42.6 °F 100% 29.91 in 7.0 mi Calm Calm - N/A   Clear
4:35 AM 41.2 °F 41.2 °F 100% 29.91 in 1.5 mi Calm Calm - N/A   Mist
4:54 AM 41.7 °F 41.7 °F 100% 29.91 in 2.0 mi Calm Calm - N/A   Clear
5:15 AM 43.2 °F 43.2 °F 100% 29.90 in 3.0 mi Calm Calm - N/A   Clear
5:34 AM 42.4 °F 42.4 °F 100% 29.90 in 1.0 mi Calm Calm - N/A   Mist
5:54 AM 41.9 °F 41.9 °F 100% 29.90 in 5.0 mi Calm Calm - N/A   Clear
6:15 AM 46.8 °F 46.8 °F 100% 29.89 in 10.0 mi Calm Calm - N/A   Clear
6:34 AM 48.4 °F 48.4 °F 100% 29.90 in 10.0 mi Calm Calm - N/A   Clear
6:55 AM 53.6 °F 52.7 °F 97% 29.89 in 10.0 mi Calm Calm - N/A   Clear
7:14 AM 53.4 °F 52.2 °F 95% 29.89 in 10.0 mi South 4.6 mph - N/A   Clear
7:35 AM 53.6 °F 51.4 °F 92% 29.89 in 10.0 mi South 4.6 mph - N/A   Clear
7:54 AM 53.6 °F 51.8 °F 94% 29.89 in 10.0 mi South 6.9 mph - N/A   Clear
8:15 AM 53.6 °F 52.2 °F 95% 29.89 in 10.0 mi SSW 4.6 mph - N/A   Clear
8:34 AM 53.6 °F 52.2 °F 95% 29.89 in 10.0 mi South 4.6 mph - N/A   Clear
8:55 AM 56.5 °F 54.5 °F 93% 29.89 in 10.0 mi SSW 4.6 mph - N/A   Clear
9:14 AM 58.3 °F 55.8 °F 91% 29.89 in 10.0 mi Calm Calm - N/A   Clear
9:34 AM 60.1 °F 56.1 °F 87% 29.89 in 10.0 mi SSW 4.6 mph - N/A   Clear
9:55 AM 62.4 °F 57.7 °F 85% 29.89 in 10.0 mi SW 9.2 mph - N/A   Clear
10:14 AM 62.8 °F 57.9 °F 84% 29.88 in 10.0 mi SSW 10.4 mph 19.6 mph N/A   Clear
10:35 AM 63.5 °F 57.7 °F 81% 29.88 in 10.0 mi SW 10.4 mph 17.3 mph N/A   Clear
10:54 AM 64.2 °F 58.1 °F 80% 29.87 in 10.0 mi SSW 10.4 mph 19.6 mph N/A   Scattered Clouds
11:14 AM 65.8 °F 59.7 °F 81% 29.88 in 10.0 mi SW 10.4 mph 16.1 mph N/A   Mostly Cloudy
11:35 AM 63.7 °F 58.8 °F 84% 29.88 in 10.0 mi SSW 10.4 mph - N/A   Overcast
11:54 AM 63.5 °F 59.2 °F 86% 29.87 in 7.0 mi SW 9.2 mph 18.4 mph N/A   Overcast
12:15 PM 64.9 °F 60.4 °F 85% 29.87 in 10.0 mi South 8.1 mph - N/A   Overcast
12:34 PM 66.2 °F 61.0 °F 83% 29.86 in 10.0 mi South 10.4 mph - N/A   Overcast
12:54 PM 68.5 °F 62.6 °F 81% 29.86 in 10.0 mi South 8.1 mph - N/A   Overcast
1:15 PM 68.5 °F 61.0 °F 77% 29.85 in 10.0 mi SSW 9.2 mph - N/A   Overcast
1:34 PM 71.8 °F 62.1 °F 71% 29.84 in 10.0 mi SSW 12.7 mph 20.7 mph N/A   Mostly Cloudy
1:55 PM 73.6 °F 61.0 °F 65% 29.84 in 10.0 mi SSW 16.1 mph 25.3 mph N/A   Scattered Clouds
2:14 PM 73.6 °F 60.1 °F 63% 29.84 in 10.0 mi SSW 12.7 mph 24.2 mph N/A   Scattered Clouds
2:35 PM 73.6 °F 59.7 °F 62% 29.83 in 10.0 mi SSW 13.8 mph 23.0 mph N/A   Scattered Clouds
2:54 PM 73.6 °F 59.0 °F 60% 29.83 in 10.0 mi SSW 16.1 mph 23.0 mph N/A   Clear
3:15 PM 73.8 °F 59.2 °F 60% 29.81 in 10.0 mi South 17.3 mph 24.2 mph N/A   Clear
3:35 PM 73.6 °F 59.0 °F 60% 29.81 in 10.0 mi South 15.0 mph 20.7 mph N/A   Clear
3:55 PM 73.6 °F 58.6 °F 59% 29.82 in 10.0 mi SSW 15.0 mph 24.2 mph N/A   Clear
4:14 PM 73.6 °F 59.4 °F 61% 29.82 in 10.0 mi SW 11.5 mph 23.0 mph N/A   Clear
4:34 PM 73.6 °F 60.1 °F 63% 29.82 in 10.0 mi SSW 11.5 mph 20.7 mph N/A   Clear
4:55 PM 73.6 °F 61.0 °F 65% 29.82 in 10.0 mi SSW 10.4 mph 20.7 mph N/A   Scattered Clouds
5:14 PM 73.6 °F 60.3 °F 63% 29.82 in 10.0 mi SSW 12.7 mph 23.0 mph N/A   Scattered Clouds
5:35 PM 73.4 °F 61.0 °F 65% 29.83 in 10.0 mi SSW 10.4 mph 23.0 mph N/A   Scattered Clouds
5:54 PM 71.1 °F 59.0 °F 66% 29.84 in 10.0 mi SW 12.7 mph 20.7 mph N/A   Mostly Cloudy
6:15 PM 69.6 °F 59.0 °F 69% 29.84 in 10.0 mi SW 12.7 mph 18.4 mph N/A   Overcast
6:34 PM 68.5 °F 59.0 °F 72% 29.84 in 10.0 mi SW 10.4 mph 18.4 mph N/A   Mostly Cloudy
6:54 PM 68.5 °F 59.4 °F 72% 29.84 in 10.0 mi SW 9.2 mph 19.6 mph N/A   Overcast
7:15 PM 68.5 °F 60.3 °F 75% 29.85 in 10.0 mi SW 9.2 mph - N/A   Overcast
7:34 PM 68.5 °F 61.0 °F 77% 29.85 in 10.0 mi SW 8.1 mph 17.3 mph N/A   Overcast
7:55 PM 68.5 °F 62.4 °F 81% 29.86 in 10.0 mi SW 9.2 mph - N/A   Scattered Clouds
8:14 PM 68.5 °F 63.3 °F 83% 29.87 in 10.0 mi SW 5.8 mph - N/A   Scattered Clouds
8:35 PM 66.2 °F 61.7 °F 85% 29.86 in 10.0 mi SW 5.8 mph - N/A   Clear
8:54 PM 66.2 °F 62.1 °F 86% 29.86 in 10.0 mi SW 8.1 mph - N/A   Clear
9:14 PM 64.9 °F 61.7 °F 89% 29.87 in 10.0 mi SW 6.9 mph - N/A   Clear
9:35 PM 64.9 °F 61.9 °F 90% 29.87 in 10.0 mi SW 5.8 mph - N/A   Clear
9:54 PM 63.5 °F 61.0 °F 91% 29.87 in 7.0 mi SW 5.8 mph - N/A   Clear
10:15 PM 63.5 °F 61.3 °F 93% 29.87 in 7.0 mi SW 4.6 mph - N/A   Clear
10:34 PM 63.5 °F 61.7 °F 94% 29.87 in 7.0 mi SW 3.5 mph - N/A   Clear
10:55 PM 63.5 °F 61.3 °F 93% 29.87 in 7.0 mi SW 5.8 mph - N/A   Clear
11:14 PM 63.5 °F 61.3 °F 93% 29.87 in 7.0 mi WSW 6.9 mph - N/A   Clear
11:35 PM 63.5 °F 61.2 °F 92% 29.88 in 10.0 mi WSW 6.9 mph - N/A   Clear
11:54 PM 63.5 °F 61.7 °F 94% 29.88 in 7.0 mi WSW 6.9 mph - N/A   Clear